{"data":{"norad_id":68248,"epoch":"2026-09-19T07:44:15.423072Z","epoch_age_seconds":153292,"freshness":"FRESH","line1":"1 68248U 26054S   26262.32240073  .00026138  00000+0  78203-3 0  9996","line2":"2 68248  53.1582 114.9714 0000810  88.1356 271.9740 15.34399798 28672","mean_motion":15.34399798,"eccentricity":8.1e-5,"inclination_deg":53.1582,"raan_deg":114.9714,"arg_perigee_deg":88.1356,"mean_anomaly_deg":271.974,"bstar":0.00078203,"rev_number":2867,"period_min":93.847770436164,"perigee_km":462.14973248565,"apogee_km":463.25794870183,"semimajor_km":6840.8408405937,"source":"CELESTRAK","updated_at":"2026-09-20T09:00:43.842711Z"}}